When you browse on this site, cookies collect data to enhance your experience and personalize the content and advertising you see.
Visit our Privacy Policy to learn more. By continuing to use the site, you agree to this use of cookies and data.
  • In Schweiz
  • Länderverzeichnis
  • Für 7 Tage
  • Wassertemperatur
  • Satellitenkarten
  • Wetterkarte
  • Widgets
  • user-avatar
    Anmelden

    Stündliche Wetter Hefei

    Heute, 21 Januar, Montag

    Zeit Temperatur Niederschläge Wind Luftdruck Luftfeuchtigkeit
    00:00 +4°C° 0 mm 1 m/S 772 mmHg 54%
    01:00 +4°C° 0 mm 1 m/S 772 mmHg 55%
    02:00 +3°C° 0 mm 1 m/S 771 mmHg 55%
    03:00 +3°C° 0 mm 1 m/S 771 mmHg 56%
    04:00 +3°C° 0 mm 1 m/S 771 mmHg 57%
    05:00 +2°C° 0 mm 1 m/S 771 mmHg 58%
    06:00 +2°C° 0 mm 1 m/S 770 mmHg 58%
    07:00 +2°C° 0 mm 1 m/S 770 mmHg 59%
    08:00 +3°C° 0 mm 1 m/S 771 mmHg 57%
    09:00 +3°C° 0 mm 2 m/S 770 mmHg 53%
    10:00 +4°C° 0 mm 2 m/S 770 mmHg 49%
    11:00 +5°C° 0 mm 2 m/S 770 mmHg 44%
    12:00 +6°C° 0 mm 2 m/S 769 mmHg 40%
    13:00 +8°C° 0 mm 3 m/S 769 mmHg 36%
    14:00 +9°C° 0 mm 3 m/S 768 mmHg 31%
    15:00 +9°C° 0 mm 3 m/S 767 mmHg 32%
    16:00 +9°C° 0 mm 3 m/S 767 mmHg 33%
    17:00 +9°C° 0 mm 2 m/S 767 mmHg 34%
    18:00 +8°C° 0 mm 2 m/S 767 mmHg 36%
    19:00 +8°C° 0 mm 1 m/S 767 mmHg 38%
    20:00 +7°C° 0 mm 1 m/S 767 mmHg 40%
    21:00 +6°C° 0 mm 1 m/S 767 mmHg 41%
    22:00 +5°C° 0 mm 2 m/S 767 mmHg 43%
    23:00 +5°C° 0 mm 2 m/S 767 mmHg 45%

    Morgen, 22 Januar, Dienstag

    Zeit Temperatur Niederschläge Wind Luftdruck Luftfeuchtigkeit
    00:00 +4°C° 0 mm 2 m/S 767 mmHg 48%
    01:00 +4°C° 0 mm 2 m/S 767 mmHg 50%
    02:00 +2°C° 0 mm 3 m/S 767 mmHg 52%
    03:00 +2°C° 0 mm 3 m/S 767 mmHg 52%
    04:00 +2°C° 0 mm 3 m/S 767 mmHg 52%
    05:00 +1°C° 0 mm 3 m/S 767 mmHg 52%
    06:00 +1°C° 0 mm 3 m/S 767 mmHg 51%
    07:00 +1°C° 0 mm 3 m/S 767 mmHg 49%
    08:00 +1°C° 0 mm 3 m/S 767 mmHg 47%
    09:00 +3°C° 0 mm 3 m/S 767 mmHg 41%
    10:00 +5°C° 0 mm 3 m/S 767 mmHg 35%
    11:00 +8°C° 0 mm 3 m/S 767 mmHg 29%
    12:00 +9°C° 0 mm 3 m/S 767 mmHg 26%
    13:00 +10°C° 0 mm 4 m/S 766 mmHg 24%
    14:00 +11°C° 0 mm 4 m/S 765 mmHg 22%
    15:00 +11°C° 0 mm 3 m/S 765 mmHg 24%
    16:00 +12°C° 0 mm 2 m/S 765 mmHg 26%
    17:00 +10°C° 0 mm 2 m/S 765 mmHg 28%
    18:00 +10°C° 0 mm 1 m/S 765 mmHg 31%
    19:00 +9°C° 0 mm 1 m/S 765 mmHg 34%
    20:00 +8°C° 0 mm 1 m/S 766 mmHg 37%
    21:00 +8°C° 0 mm 1 m/S 766 mmHg 39%
    22:00 +7°C° 0 mm 1 m/S 766 mmHg 42%
    23:00 +6°C° 0 mm 2 m/S 766 mmHg 45%

    übermorgen, 23 Januar, Mittwoch

    Zeit Temperatur Niederschläge Wind Luftdruck Luftfeuchtigkeit
    00:00 +6°C° 0 mm 2 m/S 766 mmHg 47%
    01:00 +5°C° 0 mm 2 m/S 766 mmHg 49%
    02:00 +5°C° 0 mm 2 m/S 766 mmHg 51%
    03:00 +5°C° 0 mm 2 m/S 765 mmHg 52%
    04:00 +4°C° 0 mm 2 m/S 765 mmHg 54%
    05:00 +4°C° 0 mm 2 m/S 765 mmHg 55%
    06:00 +4°C° 0 mm 2 m/S 766 mmHg 56%
    07:00 +5°C° 0 mm 1 m/S 766 mmHg 57%
    08:00 +5°C° 0 mm 1 m/S 766 mmHg 58%
    09:00 +7°C° 0 mm 1 m/S 767 mmHg 51%
    10:00 +8°C° 0 mm 2 m/S 767 mmHg 45%
    11:00 +10°C° 0 mm 2 m/S 767 mmHg 38%
    12:00 +12°C° 0 mm 1 m/S 766 mmHg 35%
    13:00 +13°C° 0 mm 1 m/S 766 mmHg 32%
    14:00 +14°C° 0 mm 1 m/S 765 mmHg 29%
    15:00 +14°C° 0 mm 1 m/S 765 mmHg 31%
    16:00 +13°C° 0 mm 1 m/S 765 mmHg 33%
    17:00 +13°C° 0 mm 1 m/S 765 mmHg 34%
    18:00 +12°C° 0 mm 1 m/S 765 mmHg 37%
    19:00 +11°C° 0 mm 1 m/S 766 mmHg 40%
    20:00 +9°C° 0 mm 2 m/S 766 mmHg 43%
    21:00 +9°C° 0 mm 2 m/S 766 mmHg 45%
    22:00 +8°C° 0 mm 2 m/S 766 mmHg 46%
    23:00 +8°C° 0 mm 2 m/S 766 mmHg 48%

    24 Januar, Donnerstag

    Zeit Temperatur Niederschläge Wind Luftdruck Luftfeuchtigkeit
    00:00 +7°C° 0 mm 2 m/S 766 mmHg 49%
    01:00 +7°C° 0 mm 2 m/S 766 mmHg 51%
    02:00 +6°C° 0 mm 2 m/S 766 mmHg 53%
    03:00 +6°C° 0 mm 2 m/S 765 mmHg 55%
    04:00 +5°C° 0 mm 2 m/S 765 mmHg 57%
    05:00 +5°C° 0 mm 2 m/S 765 mmHg 59%
    06:00 +5°C° 0 mm 2 m/S 765 mmHg 60%
    07:00 +5°C° 0 mm 2 m/S 766 mmHg 61%
    08:00 +4°C° 0 mm 3 m/S 766 mmHg 62%
    09:00 +5°C° 0 mm 3 m/S 766 mmHg 56%
    10:00 +8°C° 0 mm 3 m/S 766 mmHg 49%
    11:00 +10°C° 0 mm 4 m/S 766 mmHg 43%
    12:00 +11°C° 0 mm 4 m/S 766 mmHg 39%
    13:00 +12°C° 0 mm 4 m/S 765 mmHg 35%
    14:00 +13°C° 0 mm 4 m/S 764 mmHg 31%
    15:00 +13°C° 0 mm 3 m/S 764 mmHg 33%
    16:00 +12°C° 0 mm 3 m/S 764 mmHg 35%
    17:00 +13°C° 0 mm 2 m/S 764 mmHg 37%
    18:00 +11°C° 0 mm 3 m/S 764 mmHg 41%
    19:00 +10°C° 0 mm 3 m/S 765 mmHg 45%
    20:00 +9°C° 0 mm 3 m/S 765 mmHg 48%
    21:00 +9°C° 0 mm 3 m/S 765 mmHg 51%
    22:00 +8°C° 0 mm 3 m/S 765 mmHg 54%
    23:00 +8°C° 0 mm 3 m/S 766 mmHg 57%

    25 Januar, Freitag

    Zeit Temperatur Niederschläge Wind Luftdruck Luftfeuchtigkeit
    00:00 +8°C° 0 mm 3 m/S 766 mmHg 58%
    01:00 +8°C° 0 mm 3 m/S 766 mmHg 59%
    02:00 +8°C° 0 mm 2 m/S 766 mmHg 60%
    03:00 +8°C° 0 mm 3 m/S 766 mmHg 60%
    04:00 +8°C° 0 mm 3 m/S 766 mmHg 60%
    05:00 +7°C° 0 mm 3 m/S 766 mmHg 59%
    06:00 +7°C° 0 mm 3 m/S 766 mmHg 62%
    07:00 +7°C° 0 mm 3 m/S 767 mmHg 64%
    08:00 +7°C° 0 mm 3 m/S 768 mmHg 67%
    09:00 +8°C° 0 mm 3 m/S 768 mmHg 65%
    10:00 +9°C° 0 mm 3 m/S 769 mmHg 63%
    11:00 +10°C° 0 mm 3 m/S 769 mmHg 62%
    12:00 +11°C° 0 mm 3 m/S 769 mmHg 57%
    13:00 +11°C° 0 mm 4 m/S 768 mmHg 52%
    14:00 +12°C° 0 mm 4 m/S 768 mmHg 46%
    15:00 +12°C° 0 mm 4 m/S 768 mmHg 49%
    16:00 +12°C° 0 mm 4 m/S 769 mmHg 51%
    17:00 +11°C° 0 mm 4 m/S 769 mmHg 53%
    18:00 +10°C° 0 mm 4 m/S 770 mmHg 56%
    19:00 +8°C° 0 mm 4 m/S 770 mmHg 60%
    20:00 +8°C° 0 mm 4 m/S 771 mmHg 63%
    21:00 +7°C° 0 mm 4 m/S 771 mmHg 64%
    22:00 +6°C° 0 mm 4 m/S 772 mmHg 65%
    23:00 +6°C° 0 mm 4 m/S 772 mmHg 66%

    26 Januar, Samstag

    Zeit Temperatur Niederschläge Wind Luftdruck Luftfeuchtigkeit
    00:00 +5°C° 0 mm 5 m/S 772 mmHg 69%
    01:00 +5°C° 0 mm 5 m/S 772 mmHg 71%
    02:00 +3°C° 0 mm 5 m/S 772 mmHg 74%
    03:00 +4°C° 0 mm 4 m/S 772 mmHg 74%
    04:00 +3°C° 0 mm 4 m/S 773 mmHg 74%
    05:00 +3°C° 0 mm 4 m/S 773 mmHg 74%
    06:00 +1°C° 0 mm 4 m/S 773 mmHg 70%
    07:00 +1°C° 0 mm 4 m/S 774 mmHg 67%
    08:00 +1°C° 0 mm 4 m/S 774 mmHg 64%
    09:00 +3°C° 0 mm 4 m/S 774 mmHg 58%
    10:00 +4°C° 0 mm 4 m/S 774 mmHg 52%
    11:00 +5°C° 0 mm 4 m/S 774 mmHg 45%
    12:00 +5°C° 0 mm 3 m/S 774 mmHg 41%
    13:00 +7°C° 0 mm 3 m/S 773 mmHg 36%
    14:00 +8°C° 0 mm 3 m/S 772 mmHg 31%
    15:00 +8°C° 0 mm 3 m/S 772 mmHg 31%
    16:00 +8°C° 0 mm 3 m/S 772 mmHg 31%
    17:00 +8°C° 0 mm 3 m/S 772 mmHg 31%
    18:00 +7°C° 0 mm 3 m/S 772 mmHg 36%
    19:00 +5°C° 0 mm 3 m/S 772 mmHg 41%
    20:00 +4°C° 0 mm 3 m/S 773 mmHg 45%
    21:00 +4°C° 0 mm 3 m/S 773 mmHg 47%
    22:00 +3°C° 0 mm 3 m/S 773 mmHg 49%
    23:00 +4°C° 0 mm 2 m/S 773 mmHg 51%
    Mehr zeigen